• In Deutschland
  • Länderverzeichnis
  • Für 7 Tage
  • Wassertemperatur
  • Satellitenkarten
  • Wetterkarte
  • Widgets
  • user-avatar
    Anmelden

    Stündliche Wetter Nagold

    Heute, 18 Oktober, Mittwoch

    Zeit Temperatur Niederschläge Wind Luftdruck Luftfeuchtigkeit
    00:00 +13°C° 0 mm 1 m/S 727 mmHg 65%
    01:00 +14°C° 0 mm 1 m/S 727 mmHg 62%
    02:00 +13°C° 0 mm 1 m/S 727 mmHg 61%
    03:00 +13°C° 0 mm 1 m/S 726 mmHg 61%
    04:00 +13°C° 0 mm 1 m/S 726 mmHg 60%
    05:00 +12°C° 0 mm 1 m/S 726 mmHg 60%
    06:00 +12°C° 0 mm 1 m/S 726 mmHg 60%
    07:00 +12°C° 0 mm 1 m/S 726 mmHg 60%
    08:00 +14°C° 0 mm 1 m/S 726 mmHg 56%
    09:00 +16°C° 0 mm 1 m/S 726 mmHg 53%
    10:00 +19°C° 0 mm 1 m/S 726 mmHg 50%
    11:00 +20°C° 0 mm 1 m/S 726 mmHg 47%
    12:00 +21°C° 0 mm 1 m/S 726 mmHg 44%
    13:00 +23°C° 0 mm 1 m/S 726 mmHg 42%
    14:00 +22°C° 0 mm 1 m/S 725 mmHg 46%
    15:00 +22°C° 0 mm 1 m/S 725 mmHg 50%
    16:00 +19°C° 0 mm 0 m/S 725 mmHg 54%
    17:00 +19°C° 0 mm 1 m/S 725 mmHg 59%
    18:00 +16°C° 0 mm 1 m/S 725 mmHg 63%
    19:00 +14°C° 0 mm 1 m/S 725 mmHg 68%
    20:00 +13°C° 0 mm 1 m/S 725 mmHg 70%
    21:00 +13°C° 0 mm 1 m/S 725 mmHg 71%
    22:00 +12°C° 0 mm 1 m/S 725 mmHg 73%
    23:00 +12°C° 0 mm 1 m/S 725 mmHg 74%

    Morgen, 19 Oktober, Donnerstag

    Zeit Temperatur Niederschläge Wind Luftdruck Luftfeuchtigkeit
    00:00 +12°C° 0 mm 1 m/S 725 mmHg 75%
    01:00 +12°C° 0 mm 1 m/S 724 mmHg 76%
    02:00 +11°C° 0 mm 1 m/S 724 mmHg 76%
    03:00 +11°C° 0 mm 1 m/S 724 mmHg 76%
    04:00 +11°C° 0 mm 1 m/S 724 mmHg 76%
    05:00 +11°C° 0 mm 1 m/S 724 mmHg 76%
    06:00 +11°C° 0 mm 1 m/S 724 mmHg 75%
    07:00 +11°C° 0 mm 1 m/S 724 mmHg 75%
    08:00 +13°C° 0 mm 1 m/S 724 mmHg 69%
    09:00 +15°C° 0 mm 1 m/S 724 mmHg 64%
    10:00 +18°C° 0 mm 1 m/S 724 mmHg 58%
    11:00 +20°C° 0 mm 1 m/S 724 mmHg 54%
    12:00 +21°C° 0 mm 1 m/S 724 mmHg 50%
    13:00 +22°C° 0 mm 1 m/S 724 mmHg 45%
    14:00 +22°C° 0 mm 1 m/S 724 mmHg 49%
    15:00 +21°C° 0 mm 1 m/S 724 mmHg 53%
    16:00 +21°C° 0 mm 1 m/S 723 mmHg 58%
    17:00 +19°C° 0 mm 1 m/S 723 mmHg 62%
    18:00 +16°C° 0 mm 1 m/S 723 mmHg 67%
    19:00 +15°C° 0 mm 1 m/S 724 mmHg 72%
    20:00 +14°C° 0 mm 1 m/S 724 mmHg 74%
    21:00 +13°C° 0 mm 1 m/S 723 mmHg 77%
    22:00 +13°C° 0 mm 1 m/S 723 mmHg 79%
    23:00 +12°C° 0 mm 1 m/S 723 mmHg 80%

    übermorgen, 20 Oktober, Freitag

    Zeit Temperatur Niederschläge Wind Luftdruck Luftfeuchtigkeit
    00:00 +12°C° 0 mm 1 m/S 723 mmHg 81%
    01:00 +11°C° 0 mm 1 m/S 723 mmHg 81%
    02:00 +11°C° 0 mm 1 m/S 723 mmHg 81%
    03:00 +11°C° 0 mm 1 m/S 723 mmHg 81%
    04:00 +11°C° 0 mm 1 m/S 723 mmHg 82%
    05:00 +11°C° 0 mm 1 m/S 723 mmHg 82%
    06:00 +11°C° 0 mm 1 m/S 724 mmHg 82%
    07:00 +11°C° 0 mm 1 m/S 724 mmHg 82%
    08:00 +13°C° 0 mm 1 m/S 724 mmHg 75%
    09:00 +15°C° 0 mm 1 m/S 725 mmHg 67%
    10:00 +18°C° 0 mm 1 m/S 725 mmHg 60%
    11:00 +19°C° 0 mm 1 m/S 725 mmHg 57%
    12:00 +19°C° 0 mm 2 m/S 725 mmHg 54%
    13:00 +20°C° 0 mm 2 m/S 725 mmHg 51%
    14:00 +19°C° 0,2 mm 2 m/S 725 mmHg 58%
    15:00 +18°C° 0,2 mm 2 m/S 725 mmHg 65%
    16:00 +18°C° 0,2 mm 1 m/S 725 mmHg 71%
    17:00 +16°C° 0,3 mm 1 m/S 725 mmHg 77%
    18:00 +15°C° 0,3 mm 1 m/S 726 mmHg 82%
    19:00 +14°C° 0,3 mm 1 m/S 726 mmHg 87%
    20:00 +13°C° 0,1 mm 1 m/S 726 mmHg 87%
    21:00 +13°C° 0,1 mm 1 m/S 726 mmHg 88%
    22:00 +13°C° 0,1 mm 1 m/S 727 mmHg 89%
    23:00 +13°C° 0 mm 1 m/S 727 mmHg 89%

    21 Oktober, Samstag

    Zeit Temperatur Niederschläge Wind Luftdruck Luftfeuchtigkeit
    00:00 +12°C° 0 mm 1 m/S 727 mmHg 90%
    01:00 +12°C° 0 mm 1 m/S 727 mmHg 91%
    02:00 +12°C° 0 mm 1 m/S 726 mmHg 90%
    03:00 +12°C° 0 mm 1 m/S 726 mmHg 90%
    04:00 +12°C° 0 mm 1 m/S 726 mmHg 90%
    05:00 +12°C° 0 mm 1 m/S 726 mmHg 89%
    06:00 +12°C° 0 mm 2 m/S 726 mmHg 89%
    07:00 +12°C° 0 mm 2 m/S 726 mmHg 89%
    08:00 +14°C° 0 mm 2 m/S 726 mmHg 85%
    09:00 +15°C° 0 mm 2 m/S 726 mmHg 81%
    10:00 +16°C° 0 mm 3 m/S 726 mmHg 77%
    11:00 +17°C° 0 mm 3 m/S 726 mmHg 72%
    12:00 +18°C° 0 mm 3 m/S 726 mmHg 68%
    13:00 +19°C° 0 mm 3 m/S 726 mmHg 63%
    14:00 +18°C° 0 mm 3 m/S 726 mmHg 67%
    15:00 +18°C° 0 mm 3 m/S 726 mmHg 70%
    16:00 +17°C° 0 mm 2 m/S 726 mmHg 74%
    17:00 +16°C° 0,2 mm 2 m/S 726 mmHg 79%
    18:00 +15°C° 0,2 mm 2 m/S 726 mmHg 84%
    19:00 +14°C° 0,2 mm 2 m/S 726 mmHg 89%
    20:00 +14°C° 0,7 mm 2 m/S 726 mmHg 90%
    21:00 +12°C° 0,7 mm 3 m/S 727 mmHg 90%
    22:00 +12°C° 0,7 mm 3 m/S 727 mmHg 91%
    23:00 +11°C° 0,7 mm 3 m/S 727 mmHg 90%

    22 Oktober, Sonntag

    Zeit Temperatur Niederschläge Wind Luftdruck Luftfeuchtigkeit
    00:00 +11°C° 0,7 mm 3 m/S 727 mmHg 90%
    01:00 +10°C° 0,7 mm 3 m/S 727 mmHg 90%
    02:00 +10°C° 0,3 mm 3 m/S 727 mmHg 90%
    03:00 +10°C° 0,3 mm 3 m/S 727 mmHg 90%
    04:00 +9°C° 0,3 mm 3 m/S 727 mmHg 90%
    05:00 +9°C° 0,1 mm 3 m/S 727 mmHg 90%
    06:00 +8°C° 0,1 mm 3 m/S 727 mmHg 90%
    07:00 +8°C° 0,1 mm 3 m/S 727 mmHg 90%
    08:00 +9°C° 0,1 mm 3 m/S 727 mmHg 86%
    09:00 +8°C° 0,1 mm 4 m/S 727 mmHg 83%
    10:00 +10°C° 0,1 mm 4 m/S 727 mmHg 79%
    11:00 +10°C° 0,3 mm 4 m/S 727 mmHg 78%
    12:00 +10°C° 0,3 mm 4 m/S 727 mmHg 78%
    13:00 +10°C° 0,3 mm 4 m/S 727 mmHg 77%
    14:00 +10°C° 0,3 mm 4 m/S 727 mmHg 78%
    15:00 +10°C° 0,3 mm 3 m/S 727 mmHg 78%
    16:00 +9°C° 0,3 mm 3 m/S 727 mmHg 79%
    17:00 +8°C° 0,1 mm 3 m/S 727 mmHg 82%
    18:00 +7°C° 0,1 mm 2 m/S 727 mmHg 86%
    19:00 +6°C° 0,1 mm 2 m/S 728 mmHg 90%
    20:00 +6°C° 0 mm 2 m/S 728 mmHg 90%
    21:00 +6°C° 0 mm 2 m/S 728 mmHg 91%
    22:00 +5°C° 0 mm 2 m/S 728 mmHg 91%
    23:00 +5°C° 0 mm 2 m/S 728 mmHg 91%

    23 Oktober, Montag

    Zeit Temperatur Niederschläge Wind Luftdruck Luftfeuchtigkeit
    00:00 +5°C° 0 mm 2 m/S 729 mmHg 91%
    01:00 +5°C° 0 mm 2 m/S 729 mmHg 92%
    02:00 +5°C° 0 mm 2 m/S 729 mmHg 92%
    03:00 +5°C° 0 mm 2 m/S 729 mmHg 92%
    04:00 +5°C° 0 mm 2 m/S 729 mmHg 93%
    05:00 +5°C° 0 mm 2 m/S 730 mmHg 93%
    06:00 +5°C° 0 mm 2 m/S 730 mmHg 93%
    07:00 +5°C° 0 mm 2 m/S 730 mmHg 93%
    08:00 +6°C° 0 mm 2 m/S 731 mmHg 89%
    09:00 +7°C° 0 mm 2 m/S 731 mmHg 86%
    10:00 +8°C° 0 mm 2 m/S 731 mmHg 82%
    11:00 +9°C° 0,1 mm 2 m/S 731 mmHg 80%
    12:00 +9°C° 0,1 mm 2 m/S 731 mmHg 77%
    13:00 +10°C° 0,1 mm 2 m/S 731 mmHg 74%
    14:00 +10°C° 0 mm 2 m/S 731 mmHg 73%
    15:00 +10°C° 0 mm 2 m/S 731 mmHg 73%
    16:00 +11°C° 0 mm 1 m/S 731 mmHg 72%
    17:00 +10°C° 0 mm 1 m/S 731 mmHg 77%
    18:00 +8°C° 0 mm 1 m/S 732 mmHg 82%
    19:00 +6°C° 0 mm 0 m/S 732 mmHg 87%
    20:00 +5°C° 0 mm 0 m/S 732 mmHg 88%
    21:00 +6°C° 0 mm 1 m/S 732 mmHg 89%
    22:00 +6°C° 0 mm 1 m/S 732 mmHg 90%
    23:00 +6°C° 0 mm 1 m/S 732 mmHg 90%
    Mehr zeigen